Find CP5

NORAD ID: 38763 Int'l Des: 2012-048 Owner: CALP Country: US operational
LEO

現在のビュー

3D地球を読み込み中...

CP5について

説明を読み込み中...

次回通過

Passes for default location (London). Set your location on the main map for personalized predictions.

高度履歴

Loading altitude history...

軌道要素

1 38763U 12048F 26151.17691199 .00018936 00000-0 64348-3 0 9995
2 38763 64.6443 208.7899 0081537 181.7649 178.3205 15.27368647114167
Epoch: May 31, 2026 • Age: 5 hours

現在のステータス

高度 540.4 km
速度 7.56 km/s
衛星直下点 8.61°N, 171.68°W
打ち上げ日 Sep 13, 2012
運用期間 13.7 years
タイプ other

技術仕様

分類 Payload
質量 1.00 kg
乾燥質量 1.00 kg
総質量 1.00 kg
長さ 0.10 m
直径 0.10 m
スパン 0.20 m
形状 Box+Ant
製造者 CALP
バスタイプ Cubesat 1U
フェーズステータス In Orbit
所有者/国 CALP/US

Most Searched